AO-07 1 07530U 74089B 24207.47191549 -.00000035 00000-0 70142-4 0 9995 2 07530 101.9794 202.4801 0012384 13.0493 141.7876 12.53677281274079 UO-11 1 14781U 84021B 24206.97899560 .00002958 00000-0 33670-3 0 9999 2 14781 97.7071 175.1249 0006864 321.8433 38.2297 14.86925116154106 AO-27 1 22825U 93061C 24207.58748584 .00000286 00000-0 12724-3 0 9997 2 22825 98.7861 260.7591 0007817 333.5502 26.5280 14.30529204608371 FO-29 1 24278U 96046B 24207.27263158 .00000061 00000-0 94452-4 0 9992 2 24278 98.5797 136.9343 0351145 89.5996 274.5365 13.53194544379587 NOAA-15 1 25338U 98030A 24207.81125921 .00000353 00000-0 16382-3 0 9999 2 25338 98.5672 234.1293 0009775 205.6297 154.4400 14.26638278362942 GO-32 1 25397U 98043D 24207.88086653 .00000183 00000-0 99714-4 0 9995 2 25397 98.9240 175.1866 0002278 66.8226 293.3192 14.24075436353144 ISS 1 25544U 98067A 24207.84363838 .00017890 00000-0 31719-3 0 9997 2 25544 51.6402 123.8196 0010190 107.3120 2.1948 15.50270437464546 NO-44 1 26931U 01043C 24207.50027407 .00000341 00000-0 15999-3 0 9993 2 26931 67.0489 232.5699 0007708 275.0292 84.9930 14.31285352191594 SO-50 1 27607U 02058C 24207.73931608 .00002716 00000-0 38153-3 0 9998 2 27607 64.5551 103.0325 0025495 91.9513 268.4511 14.79210150162238 CO-55 1 27844U 03031E 24207.47374199 .00000802 00000-0 37283-3 0 9997 2 27844 98.6772 213.9699 0010528 39.7895 320.4053 14.23332945 93265 CO-57 1 27848U 03031J 24207.00110693 .00000734 00000-0 34675-3 0 9993 2 27848 98.6802 213.7274 0010668 55.7771 304.4416 14.22763994 92913 RS-22 1 27939U 03042A 24207.89162466 .00001965 00000-0 33500-3 0 9991 2 27939 98.2957 4.7157 0010893 300.9327 215.0498 14.70147306113963 NOAA-18 1 28654U 05018A 24207.79322450 .00000314 00000-0 19107-3 0 9995 2 28654 98.8736 284.4370 0013319 316.8600 43.1528 14.13262224988710 CO-58 1 28895U 05043F 24207.27833779 .00003359 00000-0 59432-3 0 9991 2 28895 98.2070 343.1740 0014671 234.5023 125.4813 14.67957642 49 CO-65 1 32785U 08021C 24207.51723439 .00007240 00000-0 62874-3 0 9998 2 32785 97.7567 172.5408 0010909 185.9588 174.1506 14.97278293881281 AAUSAT2 1 32788U 08021F 24206.93594500 .00029325 00000-0 13802-2 0 9995 2 32788 97.5958 187.3380 0007066 66.0400 294.1574 15.19479346884155 CO-66 1 32791U 08021J 24207.38183608 .00011867 00000-0 84470-3 0 9994 2 32791 97.6934 178.3638 0006475 153.4848 206.6711 15.04765246882341 RS-30 1 32953U 08025A 24207.86334313 .00000021 00000-0 79539-4 0 9993 2 32953 82.5005 65.4273 0020067 22.8966 337.3004 12.43144173733934 PRISM 1 33493U 09002B 24207.62016335 .00027731 00000-0 12292-2 0 9992 2 33493 98.2019 258.6109 0012801 118.5527 241.6997 15.21511907844898 NOAA-19 1 33591U 09005A 24207.82095984 .00000296 00000-0 18300-3 0 9997 2 33591 99.0450 264.0249 0013936 179.2052 180.9144 14.13056701797081 SRMSAT 1 37841U 11058D 24207.52534954 .00000596 00000-0 18137-3 0 9993 2 37841 19.9720 284.9027 0011801 155.2582 323.8413 14.11147792660209 RS-40 1 38735U 12041C 24207.50289795 .00000039 00000-0 20937-3 0 9990 2 38735 82.4779 146.0015 0018006 131.6408 228.6217 12.42612218544033 ZACUBE-1 1 39417U 13066B 24207.41190024 .00008134 00000-0 83310-3 0 9990 2 39417 97.7357 162.5364 0051174 36.1415 324.3243 14.89761296577271 Delfi-N3xt 1 39428U 13066N 24207.37014079 .00010179 00000-0 12768-2 0 9992 2 39428 97.8356 124.7088 0098440 325.8401 33.6501 14.78956076571918 GOMX-1 1 39430U 13066Q 24207.86338480 .00003009 00000-0 50006-3 0 9996 2 39430 97.7273 79.9030 0140649 129.4563 231.9185 14.64417397568709 LO-74 1 39440U 13066AA 24207.28414986 .00004857 00000-0 56798-3 0 9995 2 39440 97.8137 150.1437 0070345 148.3315 212.2161 14.83760413573986 AO-73 1 39444U 13066AE 24207.42963320 .00010696 00000-0 10159-2 0 9994 2 39444 97.7212 165.7788 0047723 16.7386 343.5395 14.92806494576401 SPROUT 1 39770U 14029E 24207.82715900 .00473900 00000-0 37809-2 0 9991 2 39770 98.0032 5.1168 0010315 286.7976 73.2152 15.69677449553669 DTUSAT-2 1 40030U 14033W 24207.80716728 .00009004 00000-0 74603-3 0 9998 2 40030 98.0077 161.2869 0009627 38.5466 321.6441 14.99053090548995 EO-80 1 40032U 14033Y 24207.37419724 .00008581 00000-0 70984-3 0 9995 2 40032 98.0104 160.8531 0011296 37.3955 322.8051 14.99116502548914 XW-2C 1 40906U 15049H 24207.88095223 .00032897 00000-0 69017-3 0 9995 2 40906 97.4763 225.7673 0009658 151.0719 209.1067 15.45270319490444 XW-2D 1 40907U 15049J 24207.82283966 .00054827 00000-0 83050-3 0 9993 2 40907 97.4700 228.6836 0009162 142.5184 217.6710 15.54435365490690 LILACSAT-2 1 40908U 15049K 24207.79684509 .00010894 00000-0 41025-3 0 9990 2 40908 97.5238 216.8055 0011439 204.8728 155.1961 15.27221592489389 XW-2B 1 40911U 15049N 24207.87022049 .00051871 00000-0 81352-3 0 9995 2 40911 97.4676 228.7649 0008988 144.9728 215.2117 15.53490230490567 IO-86 1 40931U 15052B 24207.41102217 .00001767 00000-0 15134-3 0 9991 2 40931 6.0003 79.5481 0013656 264.1656 95.6915 14.77952119477237 ChubuSat-2 1 41338U 16012B 24207.19449166 .00007039 00000-0 43013-3 0 9997 2 41338 31.0009 146.0946 0011759 257.9534 101.9786 15.08818108463344 ChubuSat-3 1 41339U 16012C 24207.88091576 .00005522 00000-0 34215-3 0 9991 2 41339 31.0071 140.4046 0011694 268.6898 91.2400 15.08192896463425 Horyu-4 1 41340U 16012D 24207.03887555 .00017093 00000-0 82289-3 0 9990 2 41340 31.0022 88.7133 0010310 353.0607 6.9889 15.17531211463900 Lapan A3 1 41603U 16040E 24207.87869630 .00003865 00000-0 15458-3 0 9995 2 41603 97.1418 219.8535 0010783 332.5542 27.5126 15.25614334449129 Pratham 1 41783U 16059A 24207.03865688 .00001645 00000-0 31331-3 0 9993 2 41783 97.8357 224.5993 0030954 260.0715 99.6994 14.65018990418080 CAS-2T 1 41847U 16066G 24207.83568326 .00002055 00000-0 30529-3 0 9993 2 41847 98.4584 278.8469 0354229 61.1006 302.5235 14.41497165405064 CAS-4B 1 42759U 17034B 24207.85114493 .00019244 00000-0 66006-3 0 9993 2 42759 43.0181 7.8046 0013122 249.0839 110.8609 15.29753195393327 CAS-4A 1 42761U 17034D 24207.84960989 .00019758 00000-0 67529-3 0 9995 2 42761 43.0216 6.1363 0012230 260.1472 99.8000 15.29865703393330 Aalto 1 1 42775U 17036L 24207.82832147 .00183166 00000-0 99834-3 0 9993 2 42775 97.0967 238.2280 0004285 112.9406 247.2315 15.79409578395187 D-SAT 1 42794U 17036AF 24207.46538416 .00010355 00000-0 71100-3 0 9991 2 42794 97.4823 187.9676 0108118 20.1915 340.3536 15.01443428386498 TechnoSat 1 42829U 17042E 24207.82246910 .00003933 00000-0 34633-3 0 9996 2 42829 97.3852 26.7363 0011491 306.5395 53.4769 14.96971724382956 AO-91 1 43017U 17073E 24207.17086379 .00008876 00000-0 54210-3 0 9993 2 43017 97.5722 81.3297 0208533 166.2770 194.4242 14.94106144361335 TianYi 2 1 43155U 18008A 24207.55669971 .00249169 00000-0 16264-2 0 9990 2 43155 97.2263 262.7029 0006301 244.1773 115.8842 15.75125794360919 TianYi 6 1 43158U 18008D 24207.09022708 .00087175 00000-0 13851-2 0 9999 2 43158 97.2533 255.9394 0003995 284.2489 75.8320 15.53021907360346 S-Net D 1 43186U 18014G 24207.22125568 .00006891 00000-0 48843-3 0 9996 2 43186 97.5851 108.3995 0009133 231.8407 128.1998 15.05069852354220 S-Net B 1 43187U 18014H 24207.22369584 .00006642 00000-0 47099-3 0 9991 2 43187 97.5857 108.3545 0010005 226.8093 133.2299 15.05061374354225 S-Net A 1 43188U 18014J 24207.42181902 .00006962 00000-0 49332-3 0 9997 2 43188 97.5862 108.6649 0009890 226.9601 133.0798 15.05073636354255 S-Net C 1 43189U 18014K 24207.69116072 .00006540 00000-0 46355-3 0 9997 2 43189 97.5878 108.8853 0011769 218.5727 141.4660 15.05067742352841 Ten-Koh 1 43677U 18084G 24206.99403719 .00005197 00000-0 46381-3 0 9991 2 43677 98.0686 1.6506 0012526 250.3100 109.6769 14.96361820312375 PO-101 1 43678U 18084H 24207.81634980 .00001786 00000-0 16682-3 0 9991 2 43678 98.0766 6.9480 0007714 263.0982 96.9360 14.95504104312699 QO-100 1 43700U 18090A 24207.80092958 .00000142 00000-0 00000+0 0 9994 2 43700 0.0154 71.8804 0002308 96.1735 90.0781 1.00267816 20983 MinXSS-2 1 43758U 18099A 24207.61419384 .00012193 00000-0 75060-3 0 9992 2 43758 97.5513 269.4047 0016861 181.7264 178.3910 15.10029635308587 AO-95 1 43770U 18099N 24207.10679338 .00011344 00000-0 76898-3 0 9994 2 43770 97.5433 264.1564 0012827 228.4205 131.5923 15.06547390308279 RANGE-B 1 43772U 18099Q 24207.61469435 .00014024 00000-0 84027-3 0 9998 2 43772 97.5210 268.2711 0006486 132.0916 228.0866 15.11081550308529 RANGE-A 1 43773U 18099R 24207.12950645 .00006615 00000-0 49696-3 0 9993 2 43773 97.4992 259.1555 0012610 193.2478 166.8418 15.02854994308138 MOVE-II 1 43780U 18099Y 24207.42331938 .00025058 00000-0 12444-2 0 9994 2 43780 97.5185 270.0984 0006832 193.0056 167.1003 15.17645409308722 SNUSat 2 1 43782U 18099AA 24207.14393367 .00010044 00000-0 69808-3 0 9995 2 43782 97.5108 263.1369 0015323 166.6058 193.5579 15.05619305308287 SnugLite 1 43784U 18099AC 24207.13126489 .00010018 00000-0 67488-3 0 9998 2 43784 97.4919 262.4448 0005173 163.8034 196.3360 15.06865143308354 ITASat 1 1 43786U 18099AE 24207.23469650 .00008202 00000-0 58240-3 0 9999 2 43786 97.5078 263.4341 0016510 218.7653 141.2390 15.04862212308297 EAGLET 1 1 43790U 18099AJ 24207.58580574 .00006504 00000-0 48317-3 0 9998 2 43790 97.5239 264.2646 0013507 196.1400 163.9397 15.03279733308040 ESEO 1 43792U 18099AL 24207.23494558 .00004104 00000-0 33508-3 0 9998 2 43792 97.5152 260.5395 0010989 179.2223 180.9020 14.99904343307904 CSIM 1 43793U 18099AM 24207.15403462 .00026451 00000-0 13228-2 0 9999 2 43793 97.5266 271.5798 0012924 176.0751 184.0586 15.17336059308538 JO-97 1 43803U 18099AX 24207.59152805 .00011125 00000-0 72106-3 0 9994 2 43803 97.5165 265.4234 0010480 165.1210 195.0329 15.08234542308484 Suomi 100 1 43804U 18099AY 24207.13236687 .00010829 00000-0 71746-3 0 9995 2 43804 97.5238 264.7632 0016283 167.4271 192.7367 15.07366222308395 ISAT 1 43879U 18111D 24207.42124555 .00014633 00000-0 86386-3 0 9997 2 43879 97.6147 112.9612 0011496 220.0826 139.9556 15.11574185303170 UWE-4 1 43880U 18111E 24207.23400752 .00012136 00000-0 73815-3 0 9993 2 43880 97.6063 112.6965 0014775 233.2358 126.7516 15.10499694305178 Sparrow 1 43881U 18111F 24207.64392502 .00013970 00000-0 81326-3 0 9995 2 43881 97.6233 115.1586 0007785 264.9032 95.1310 15.12119615303294 Prox-1 1 44339U 19036A 24207.73818918 .00012716 00000-0 21399-2 0 9995 2 44339 24.0003 337.2453 0009606 68.9612 291.1909 14.67795946271003 SONATE 1 44400U 19038Q 24207.20669679 .00026491 00000-0 75308-3 0 9991 2 44400 97.7130 203.0499 0013466 338.3617 21.7055 15.36051204279914 Taurus 1 1 44530U 19059C 24207.86770161 .00006536 00000-0 14944-2 0 9995 2 44530 98.5792 329.0815 0010238 294.2695 65.7432 14.56003607257392 Duchifat 3 1 44854U 19089C 24207.29790040 .00020187 00000-0 97807-3 0 9990 2 44854 36.9555 177.3882 0003385 39.4941 320.6053 15.17816904253994 TO-108 1 44881U 19093C 24207.81589539 .00001722 00000-0 21350-3 0 9996 2 44881 97.8272 283.8548 0014093 191.0404 169.0503 14.83892967248775 FloripaSat 1 1 44885U 19093G 24207.81688488 .00005818 00000-0 59607-3 0 9999 2 44885 97.8396 290.1095 0012625 182.4699 177.6459 14.90805090249127 RS-44 1 44909U 19096E 24207.18569360 .00000084 00000-0 29838-3 0 9999 2 44909 82.5196 79.5274 0216933 322.6336 35.9843 12.79732354213834 BY70-2 1 45857U 20042B 24207.83085650 .00273013 00000-0 49687-2 0 9999 2 45857 97.9005 304.3683 0004547 248.8781 111.1982 15.48482015220494 UPMSat 2 1 46276U 20061E 24207.24144960 .00020054 00000-0 58322-3 0 9993 2 46276 97.2939 273.0788 0001394 68.9041 291.2352 15.35476483216016 AmicalSat 1 46287U 20061R 24207.15320225 .00045155 00000-0 11167-2 0 9999 2 46287 97.3456 274.5008 0002677 110.1370 250.0165 15.40321964215400 SALSAT 1 46495U 20068K 24207.88537533 .00007085 00000-0 39548-3 0 9993 2 46495 97.8185 168.1719 0014049 172.7219 187.4219 15.13784881210166 UVSQ-SAT 1 47438U 21006AB 24207.56671820 .00076042 00000-0 11968-2 0 9991 2 47438 97.3217 268.7040 0005025 89.0642 271.1187 15.53323793194681 YUSAT 1 1 47439U 21006AC 24207.61902052 .01325904 10901-2 17550-2 0 9993 2 47439 97.3076 275.4825 0010335 254.7225 105.2915 16.06927443195137 SOMP 2b 1 47445U 21006AJ 24207.20253837 .00060387 00000-0 11008-2 0 9994 2 47445 97.3185 266.4083 0006367 97.1507 263.0468 15.49239179194530 IDEASSat 1 47458U 21006AX 24207.57708641 .00052495 00000-0 10764-2 0 9995 2 47458 97.3293 267.1964 0006770 95.1290 265.0733 15.45864747194511 CubeSX-Sirius-HSE 1 47951U 21022V 24207.84882211 .00021971 00000-0 81537-3 0 9999 2 47951 97.4547 106.1525 0013464 12.9331 347.2250 15.27515191184475 CubeSX-HSE 1 47952U 21022W 24207.86475078 .00022165 00000-0 81956-3 0 9992 2 47952 97.4548 106.2674 0013387 11.9855 348.1700 15.27635377184487 KSU-Cubesat 1 47954U 21022Y 24207.70807063 .00030254 00000-0 10070-2 0 9996 2 47954 97.4559 107.6192 0011834 9.2208 350.9248 15.31024280184273 GRBAlpha 1 47959U 21022AD 24207.82665862 .00021549 00000-0 79477-3 0 9997 2 47959 97.4548 106.3858 0013245 12.3108 347.8452 15.27726479183302 Orbicraft-Zorkiy 1 47960U 21022AE 24207.83317602 .00024218 00000-0 83315-3 0 9998 2 47960 97.4591 107.8171 0012066 11.0684 349.0819 15.29997389184068 STECCO 1 47962U 21022AG 24207.59879475 .00355284 00000-0 20324-2 0 9994 2 47962 97.4476 119.5464 0005571 142.4886 217.6769 15.77862075184142 MO-110 1 47964U 21022AJ 24207.69697918 .02236331 54913-2 22730-2 0 9997 2 47964 97.4351 122.3912 0011383 183.1665 176.9550 16.12172278184325 TUBIN 1 48900U 21059X 24207.81787814 .00017442 00000-0 57295-3 0 9996 2 48900 97.6508 353.6260 0005875 313.1576 46.9173 15.31619916170835 LEDSAT 1 49069U 21073D 24207.16522342 .00021433 00000-0 82258-3 0 9992 2 49069 97.4352 278.0758 0019645 148.0217 212.2218 15.26310363162248 CUTE 1 49263U 21088D 24207.16989583 .00020976 00000-0 93597-3 0 9997 2 49263 97.4945 272.9496 0012010 309.5233 50.4940 15.21344783155418 TeikyoSat 4 1 49396U 21102B 24207.15552094 .00003363 00000-0 24313-3 0 9994 2 49396 97.4556 250.8222 0014250 142.4326 217.7899 15.04615461148463 Z-Sat 1 49399U 21102E 24207.87460396 .00005948 00000-0 37929-3 0 9997 2 49399 97.4284 253.1634 0021630 123.4262 236.9040 15.08879366148826 KOSEN 1 1 49402U 21102H 24207.37200337 .00008079 00000-0 47034-3 0 9990 2 49402 97.4203 254.2576 0020303 109.3244 251.0185 15.12108977148914 HO-113 1 50466U 21131B 24207.83668981 .00001017 00000-0 33854-3 0 9998 2 50466 98.5282 292.7274 0004425 27.4812 332.6609 14.39747154135563 Tevel-3 1 50988U 22002E 24207.47840635 .00770769 26043-3 19186-2 0 9999 2 50988 97.3627 285.9262 0010671 248.2831 111.7309 15.95761343141094 Tevel-8 1 50989U 22002F 24207.46622878 .00727068 22701-3 18889-2 0 9996 2 50989 97.3679 285.9957 0010712 248.5463 111.4670 15.94954316141083 Tevel-1 1 51013U 22002AF 24207.45966030 .00708516 21376-3 18742-2 0 9997 2 51013 97.3647 285.7201 0010402 247.5819 112.4355 15.94618555141080 IRIS-A 1 51044U 22002BN 24207.25374402 .00024148 00000-0 74959-3 0 9998 2 51044 97.3815 273.6692 0004816 245.2737 114.8005 15.33366228140253 Tevel-7 1 51062U 22002CG 24207.81648575 .00777881 26871-3 18571-2 0 9998 2 51062 97.3626 286.3770 0010433 249.2540 110.7619 15.96540268141141 Tevel-4 1 51063U 22002CH 24207.26723651 .00649870 17355-3 18889-2 0 9992 2 51063 97.3667 285.5810 0009950 244.7772 115.2471 15.92825526141046 Tevel-2 1 51069U 22002CP 24207.78801874 .00745421 24414-3 18025-2 0 9994 2 51069 97.3623 286.2341 0011011 247.7890 112.2219 15.96286739141145 OreSat0 1 52017U 22026K 24207.51546857 .00111735 00000-0 13197-2 0 9994 2 52017 97.4907 223.7227 0012274 91.9449 268.3214 15.60859575131675 Planetum 1 1 52738U 22057G 24207.78044985 .00056966 00000-0 11893-2 0 9997 2 52738 97.5692 335.4268 0003977 5.9412 354.1883 15.45331598120529 Foresail-1 1 52766U 22057AL 24207.31429285 .00025083 00000-0 76781-3 0 9991 2 52766 97.5868 333.7740 0008753 0.0678 0.0563 15.33780016120294 SNUGLITE 2 1 52899U 22065F 24207.47857368 .00002395 00000-0 49746-3 0 9993 2 52899 98.1249 347.8950 0008366 41.3225 318.8608 14.61006616109852 IO-117 1 53106U 22080B 24206.16680960 -.00000003 00000-0 00000-0 0 9991 2 53106 70.1349 179.6741 0007614 98.9379 261.2142 6.42557625 47640 SelfieSat 1 53951U 22057BC 24207.37253996 .00163493 00000-0 15930-2 0 9994 2 53951 97.5689 339.8562 0004751 308.4792 51.6041 15.65705598120747 FO-118 1 54684U 22167C 24207.81815161 .00030698 00000-0 97123-3 0 9992 2 54684 97.6096 353.6364 0009173 10.7847 349.3589 15.32681303 90218 SSS-2B 1 56184U 23054G 24207.81587547 .00041113 00000-0 89068-3 0 9992 2 56184 97.3628 106.2101 0007870 57.0081 303.1923 15.44292182 72092 CIRBE 1 56188U 23054L 24207.24255252 .00103293 00000-0 12968-2 0 9990 2 56188 97.3542 108.2774 0005177 77.6228 282.5607 15.59354889 72209 INSPIRE-Sat 7 1 56211U 23054AK 24207.68012294 .00128010 00000-0 13905-2 0 9998 2 56211 97.3549 110.1564 0004665 51.6904 308.4773 15.63054761 72355 RoseyCubesat 1 1 56212U 23054AL 24207.85484990 .00173273 00000-0 13675-2 0 9999 2 56212 97.3560 111.4945 0004278 70.2107 289.9617 15.70867993 72456 SO-120 1 56992U 23084BU 24207.79011034 .00034398 00000-0 11525-2 0 9991 2 56992 97.5345 327.6419 0011591 245.2394 114.7641 15.30787180 62084 MRC-100 1 56993U 23084BV 24207.24585004 .00043710 00000-0 13509-2 0 9997 2 56993 97.5348 327.6245 0011097 246.2090 113.7989 15.33330141 62044 UmKA 1 (RS40S) 1 57172U 23091G 24207.82180663 .00006551 00000-0 42713-3 0 9993 2 57172 97.6090 259.4848 0016094 355.0793 5.0274 15.08125526 59318 CubeBel-2 (EU11S) 1 57175U 23091K 24207.81889538 .00008291 00000-0 52727-3 0 9991 2 57175 97.6089 259.4769 0014656 7.8895 352.2561 15.08979971 59315 VERONIKA 1 58261U 23174F 24207.85481018 .00019764 00000-0 84409-3 0 9994 2 58261 97.4581 282.3212 0012946 109.4804 250.7832 15.22839536 39593 KAFASAT 1 58317U 23174BP 24207.84737050 .00026033 00000-0 99293-3 0 9999 2 58317 97.4526 283.0611 0011248 88.9225 271.3302 15.26600014 39656 ENSO 1 58470U 23185J 24207.87558927 .00018013 00000-0 72815-3 0 9998 2 58470 97.4237 274.2220 0013425 140.5383 219.6835 15.24710353 36033 EIRSAT-1 1 58472U 23185L 24207.83275623 .00019466 00000-0 76978-3 0 9992 2 58472 97.4231 274.2560 0013031 141.5711 218.6458 15.25435223 36036 SO-121 1 58567U 23174CY 24207.20435427 .00066297 00000-0 19706-2 0 9995 2 58567 97.4508 283.1622 0010709 102.4956 257.7485 15.34458460 39600 SONATE-2 1 59112U 24043Q 24207.30973008 .00013694 00000-0 64418-3 0 9995 2 59112 97.4829 330.7682 0015269 158.2214 201.9673 15.19578526 21598 KASHIWA 1 59508U 98067WH 24207.81655308 .00453602 00000-0 16286-2 0 9993 2 59508 51.6239 112.5381 0007341 153.2246 206.9139 15.86995018 16586 MESAT1 1 60209U 24125G 24207.55202574 .00012802 00000-0 59862-3 0 9992 2 60209 97.3201 59.7972 0026567 186.1951 173.8959 15.19582511 3246 GRBBeta 1 60236U 24128B 24207.82831710 .00002768 00000-0 25662-3 0 9996 2 60236 61.9945 106.3556 0010477 291.6020 68.3952 14.96887996 2392 ROBUSTA-3A 1 60243U 24128J 24207.84020943 .00006185 00000-0 56646-3 0 9997 2 60243 61.9921 106.4024 0012720 263.1658 96.7983 14.95861715 2398 CatSat 1 60246U 24125J 24207.82742563 .00011056 00000-0 50742-3 0 9998 2 60246 97.3022 61.4028 0053945 139.8945 220.6292 15.19254673 1400 /EX
